Location: UBC Liquid-Mirror Observatory
(49.2876°N, 122.5728°W)
Time: 09:38:46
(UTC-07:00)

Daily predictions for brighter satellites

Satellite Brightness Start Highest point End
(mag) Time Altitude Azimuth Time Altitude Azimuth Time Altitude Azimuth
Cosmos 405 4.1 21:58:45 10° NNW 22:02:15 46° W 22:05:43 10° S
Cosmos 1300 2.9 21:58:46 10° N 22:02:34 56° ENE 22:06:21 10° SSE
Cosmos 1777 Rocket 4.3 21:57:22 10° SSW 22:02:39 78° WNW 22:07:56 10° NNE
Cosmos 292 Rocket 4.4 22:00:26 10° NNW 22:05:04 46° ENE 22:09:37 10° SE
Cosmos 1939 Rocket 4.2 22:01:40 10° SSW 22:05:19 36° W 22:08:57 10° NNW
ATLAS 3B R/B 3.8 22:01:58 10° NW 22:08:45 40° NNE 22:15:07 10° E
Cosmos 2227 Rocket 3.8 22:09:32 10° SE 22:12:55 16° E 22:16:19 10° ENE
YAOGAN 6 2.7 22:10:51 10° S 22:14:29 76° WSW 22:18:06 10° NNW
Nadezhda 2 Rocket 4.5 22:09:04 10° S 22:15:11 78° E 22:21:19 10° NNE
Cosmos 2333 Rocket 2.8 22:13:57 10° NNW 22:19:34 49° NE 22:25:08 10° SE
NOSS 3-1 (C) 3.8 22:14:06 10° S 22:19:40 43° ESE 22:25:50 10° NE
Cosmos 1833 4.4 22:14:08 10° SSW 22:19:51 81° WNW 22:25:34 10° NNE
SL-16 R/B 3.8 22:16:49 10° NNW 22:21:34 26° NE 22:26:17 10° E
Terra 2.5 22:18:02 10° SE 22:22:29 41° ENE 22:26:57 10° N
H-2A R/B 2.6 22:19:52 10° SE 22:25:03 52° ENE 22:30:20 10° N
Cosmos 1455 3.6 22:21:54 10° NNE 22:25:09 26° ENE 22:28:13 11° SE
NOSS 0 Rocket 4.1 22:21:17 10° NNW 22:27:26 65° NE 22:33:18 11° SE
ATLAS 5 CENTAUR R/B 4.4 22:23:51 10° W 22:28:16 28° NNW 22:33:00 10° NE
CZ-4B R/B 3.6 22:24:32 10° NNE 22:29:52 79° ESE 22:35:06 10° SSW
COSMOS 2428 3.0 22:25:43 10° NNW 22:31:20 65° WSW 22:36:57 10° SSE
Cosmos 2242 Rocket 3.6 22:30:23 10° N 22:34:52 75° E 22:39:10 11° SSE
SPOT 1/Viking Rocket 4.0 22:32:15 10° S 22:37:20 61° WSW 22:42:29 10° NNW
CZ-4 R/B 3.9 22:32:41 10° NNE 22:37:40 69° ESE 22:42:31 10° S
Cosmos 2297 Rocket 3.7 22:36:46 12° SE 22:40:02 19° E 22:43:51 10° ENE
CZ-4C R/B 3.0 22:38:19 13° SSE 22:41:26 85° ENE 22:44:56 10° NNW
Cosmos 2219 Rocket 2.2 22:37:38 10° NNW 22:43:17 86° ENE 22:48:13 14° SSE
SAR-Lupe-2 4.1 22:40:27 14° SE 22:43:17 47° ENE 22:46:45 10° N
Cosmos 1862 Rocket 4.0 22:41:49 10° N 22:46:03 46° ENE 22:49:24 15° SE
BREEZE-M DEB (TANK) 1.8 22:44:08 10° W 22:46:05 53° SSW 22:48:17 14° ESE
Cosmos 1898 Rocket 3.5 22:41:23 10° S 22:46:28 61° ESE 22:51:37 10° NNE
ARGOS 3.6 22:41:48 10° S 22:47:09 62° WSW 22:52:31 10° NNW
Cosmos 2151 4.4 22:44:10 10° SW 22:48:06 38° WNW 22:52:04 10° N
Tiangong 1 3.3 22:46:38 10° S 22:47:01 11° S 22:47:01 11° S
Cosmos 1726 2.8 22:44:59 10° NNW 22:48:41 54° W 22:52:23 10° S
USA 245 4.1 22:47:27 10° SSW 22:49:32 23° W 22:51:28 10° NW
Cosmos 2150 Rocket 4.1 22:45:51 10° S 22:51:15 69° ESE 22:56:42 10° NNE
DELTA 2 DEB (DPAF) 4.3 22:47:23 12° S 22:51:35 76° WSW 22:56:06 10° NNW
CARTOSAT-1 3.6 22:48:24 14° SSE 22:52:04 76° ENE 22:56:24 10° N
Sich 1 3.1 22:49:09 10° S 22:53:35 86° W 22:58:00 10° N
SL-08 RB Rocket 4.2 22:51:05 10° S 22:55:28 54° W 22:59:55 10° NNW
Cosmos 1633 Rocket 3.1 22:51:39 10° S 22:56:03 85° WNW 23:00:27 10° N
USA 234 4.4 22:50:06 10° ENE 22:56:16 46° N 23:02:26 10° WNW
FALCON 9 R/B 4.4 22:33:03 10° WSW 22:56:35 40° SSW 23:03:14 13° SE
SeaSat 1 3.6 22:52:23 10° ESE 22:56:50 35° NE 23:01:19 10° NNW
Lacrosse 4 Rocket 2.8 22:52:58 10° NNW 22:56:59 33° NE 23:00:59 10° ESE
Cosmos 1271 Rocket 3.0 22:55:03 10° NNW 22:58:50 64° W 23:02:06 14° S
Cosmos 1980 3.7 22:54:58 10° NNW 23:00:40 86° ENE 23:05:12 16° SSE
SL-14 R/B 3.9 23:00:28 10° SSW 23:04:22 57° WNW 23:08:21 10° N
Cosmos 1703 3.2 23:00:50 12° S 23:04:26 83° E 23:08:22 10° NNE
DMSP B5D2-2 4.2 22:59:58 10° NNE 23:05:09 58° E 23:09:38 14° S
Cosmos 2058 4.3 23:04:02 10° SW 23:07:51 37° WNW 23:11:43 10° N
Cosmos 2219 3.8 23:03:36 10° SW 23:09:19 63° WNW 23:15:03 10° NNE
Cosmos 2237 Rocket 2.2 23:07:46 10° NNW 23:13:31 84° WSW 23:17:50 18° SSE
Iridium 2 3.8 23:11:14 13° S 23:14:33 76° W 23:18:26 10° N
Meteor 1-4 Rocket 3.8 23:11:57 10° NNW 23:15:28 37° W 23:18:34 12° SSW
ERBS 3.7 23:18:46 22° SE 23:18:46 22° SE 23:21:28 10° E
Cosmos 2082 4.0 23:16:22 13° S 23:21:13 51° ESE 23:26:45 10° NE
NOSS 3-1 (A) 3.4 23:17:00 10° SW 23:22:59 81° SE 23:29:45 10° NE
COSMOS 2455 3.0 23:22:03 10° NNW 23:28:07 75° NE 23:32:41 18° SE
ALOS 2 4.3 23:25:46 12° ESE 23:28:45 24° ENE 23:32:16 10° N
Cosmos 1933 3.6 23:26:14 10° N 23:30:16 56° ENE 23:32:31 24° SSE
COS B Rocket 4.0 23:27:49 10° NNE 23:31:17 38° E 23:33:11 23° SE
Cosmos 1626 2.1 23:30:01 20° S 23:32:34 89° W 23:36:22 10° N
Cosmos 1241 Rocket 4.5 23:28:52 10° SSW 23:34:56 60° ESE 23:41:08 10° NE
IGS 5A 4.3 23:34:54 17° SSW 23:37:51 42° W 23:41:51 10° NNW
Cosmos 220 Rocket 4.4 23:35:44 10° SSW 23:40:07 67° WNW 23:44:34 10° NNE
Nadezhda 1 Rocket 4.5 23:35:44 10° NNW 23:41:38 54° W 23:46:43 14° SSW
Okean 1-7 3.6 23:39:28 10° N 23:43:37 46° ENE 23:45:52 24° SE
BREEZE-M DEB (TANK) 4.0 23:45:34 13° E 23:45:34 13° E 23:46:19 10° E
ATLAS 2AS CENTAUR R/B 3.1 23:38:15 10° SSW 23:45:37 57° ESE 23:53:30 10° NE
Cosmos 1937 Rocket 3.9 23:41:34 10° SW 23:46:45 62° WNW 23:51:56 10° NNE
Cosmos 1470 Rocket 4.2 23:43:01 12° SSW 23:46:51 51° WNW 23:51:06 10° N
Cosmos 1703 Rocket 3.5 23:42:33 10° N 23:46:56 79° E 23:49:21 26° SSE
Cosmos 1933 Rocket 4.3 23:44:13 12° SSW 23:48:11 53° WNW 23:52:34 10° N
Cosmos 1346 4.0 23:46:35 18° SW 23:48:32 44° WNW 23:51:28 10° N
Cosmos 2221 Rocket 3.6 23:48:03 10° N 23:52:40 85° E 23:55:11 27° SSE
